EW7186 Weather Reports


Display with metric or nautical units.
time (UTC)temp
F
wind
direction
speed
MPH
gust
MPH
rain 1hr
in
rain 24hr
in
rain mn
in
humidity
%
barometer
mb
20260904080100 77 0 0.0 0.0 0.00 0.00 0.00 89 1015.6
20260904074556 78 0 0.0 0.0 0.00 0.00 0.00 89 1015.5
20260904073102 78 0 0.0 0.0 0.00 0.00 0.00 89 1015.4
20260904071601 78 0 0.0 0.0 0.00 0.00 0.00 88 1015.7
20260904070100 78 0 0.0 0.0 0.00 0.00 0.00 88 1015.7
20260904064555 79 0 0.0 0.0 0.00 0.00 0.00 87 1015.8
20260904063101 79 0 0.0 0.0 0.00 0.00 0.00 86 1015.8
20260904061606 79 0 0.0 0.0 0.00 0.00 0.00 86 1016.0
20260904060100 79 0 0.0 0.0 0.00 0.00 0.00 85 1016.2
20260904054604 80 0 0.0 0.0 0.00 0.00 0.00 84 1016.4
20260904053139 80 0 0.0 0.0 0.00 0.00 0.00 83 1016.5
20260904051605 80 0 0.0 1.0 0.00 0.00 0.00 82 1016.5
20260904050111 81 0 0.0 0.0 0.00 0.00 0.00 82 1016.7
20260904044601 81 0 0.0 0.0 0.00 0.00 0.00 81 1016.8
20260904043103 81 0 0.0 0.0 0.00 0.00 0.00 80 1016.8
20260904041605 81 0 0.0 0.0 0.00 0.00 0.00 79 1016.9
20260904040104 82 0 0.0 0.0 0.00 0.00 0.00 78 1016.9
20260904034604 82 0 0.0 1.0 0.00 0.00 0.00 77 1017.0
20260904033118 82 0 0.0 0.0 0.00 0.00 0.00 76 1017.1
20260904031603 82 0 0.0 0.0 0.00 0.00 0.00 75 1017.1
20260904030103 83 0 0.0 0.0 0.00 0.00 0.00 74 1017.0
20260904024602 83 0 0.0 0.0 0.00 0.00 0.00 74 1017.1
20260904023101 84 0 0.0 0.0 0.00 0.00 0.00 73 1017.0
20260904021556 84 0 0.0 0.0 0.00 0.00 0.00 72 1017.0
20260904020121 85 0 0.0 0.0 0.00 0.00 0.00 72 1016.7
20260904014650 85 0 0.0 0.0 0.00 0.00 0.00 71 1016.6
20260904013110 86 0 0.0 0.0 0.00 0.00 0.00 70 1016.5
20260904011608 86 0 0.0 0.0 0.00 0.00 0.00 68 1016.3
20260904010104 87 0 0.0 0.0 0.00 0.00 0.00 67 1016.1
20260904004605 87 0 0.0 0.0 0.00 0.00 0.00 66 1015.7
20260904003115 88 0 0.0 0.0 0.00 0.00 0.00 66 1015.4
20260904001602 88 0 0.0 0.0 0.00 0.00 0.00 64 1015.2
20260903234614 90 0 0.0 0.0 0.00 0.00 0.00 62 1014.8
20260903233102 91 0 0.0 0.0 0.00 0.00 0.00 60 1014.7
20260903231604 92 0 0.0 0.0 0.00 0.00 0.00 58 1015.0
20260903230106 92 0 0.0 0.0 0.00 0.00 0.00 56 1015.1
20260903224616 93 0 0.0 0.0 0.00 0.00 0.00 56 1015.1
20260903223107 93 0 0.0 2.0 0.00 0.00 0.00 54 1015.1
20260903221604 93 0 0.0 2.0 0.00 0.00 0.00 53 1014.9
20260903220108 93 0 0.0 3.0 0.00 0.00 0.00 59 1014.9
20260903214602 93 69 2.0 6.0 0.00 0.00 0.00 63 1015.1
20260903213101 92 68 2.0 5.0 0.00 0.00 0.00 63 1015.2
20260903211606 93 0 0.0 4.0 0.00 0.00 0.00 57 1015.2
20260903210104 93 44 0.0 0.0 0.00 0.00 0.00 60 1015.2
20260903204605 93 72 3.0 10.0 0.00 0.00 0.00 61 1015.4
20260903203059 93 0 0.0 8.0 0.00 0.00 0.00 56 1015.3
20260903201606 94 0 0.0 3.0 0.00 0.00 0.00 54 1015.6
20260903200104 93 0 1.0 6.0 0.00 0.00 0.00 57 1015.8
20260903194606 92 78 1.0 5.0 0.00 0.00 0.00 57 1015.8
20260903193118 92 72 6.0 8.0 0.00 0.00 0.00 63 1016.0
20260903191604 92 64 4.0 5.0 0.00 0.00 0.00 61 1016.1
20260903190104 91 60 4.0 5.0 0.00 0.00 0.00 62 1016.1
20260903184608 91 0 1.0 5.0 0.00 0.00 0.00 59 1016.3
20260903183106 91 9 1.0 4.0 0.00 0.00 0.00 59 1016.6
20260903181608 90 46 3.0 4.0 0.00 0.00 0.00 63 1016.7
20260903180109 89 61 5.0 7.0 0.00 0.00 0.00 66 1016.7
20260903174603 89 57 5.0 7.0 0.00 0.00 0.00 65 1016.8
20260903173106 89 50 3.0 5.0 0.00 0.00 0.00 66 1017.0
20260903171603 89 60 5.0 6.0 0.00 0.00 0.00 68 1017.2
20260903170224 88 58 4.0 5.0 0.00 0.00 0.00 66 1017.3
20260903164605 88 48 3.0 5.0 0.00 0.00 0.00 66 1017.4
20260903163104 88 63 5.0 5.0 0.00 0.00 0.00 69 1017.6
20260903161622 88 65 2.0 3.0 0.00 0.00 0.00 66 1017.6
20260903160105 87 68 2.0 3.0 0.00 0.00 0.00 64 1017.8
20260903154604 87 60 3.0 4.0 0.00 0.00 0.00 65 1018.1
20260903153106 87 58 2.0 3.0 0.00 0.00 0.00 65 1018.1
20260903151604 87 303 1.0 3.0 0.00 0.00 0.00 67 1018.0
20260903150104 86 355 1.0 3.0 0.00 0.00 0.00 66 1018.1
20260903144607 86 14 1.0 4.0 0.00 0.00 0.00 68 1018.0
20260903143106 85 325 2.0 3.0 0.00 0.00 0.00 68 1017.8
20260903141602 85 336 2.0 5.0 0.00 0.00 0.00 71 1018.0
20260903134601 83 234 0.0 1.0 0.00 0.00 0.00 76 1018.0
20260903133101 82 0 0.0 4.0 0.00 0.00 0.00 78 1018.0
20260903131606 82 0 0.0 0.0 0.00 0.00 0.00 79 1018.1
20260903130106 81 0 0.0 1.0 0.00 0.00 0.00 82 1018.1
20260903124628 80 0 0.0 0.0 0.00 0.00 0.00 85 1018.1
20260903123106 79 0 0.0 1.0 0.00 0.00 0.00 86 1018.1
20260903121603 78 0 0.0 0.0 0.00 0.00 0.00 87 1018.2
20260903120109 77 0 0.0 0.0 0.00 0.00 0.00 88 1018.0
20260903114615 77 0 0.0 0.0 0.00 0.00 0.00 89 1017.9
20260903113110 76 0 0.0 0.0 0.00 0.00 0.00 90 1017.8
20260903111602 76 0 0.0 0.0 0.00 0.00 0.00 89 1017.6
20260903110106 76 0 0.0 0.0 0.00 0.00 0.00 88 1017.5
20260903104606 76 0 0.0 0.0 0.00 0.00 0.00 88 1017.5
20260903103104 76 0 0.0 0.0 0.00 0.00 0.00 87 1017.3
20260903101603 76 0 0.0 0.0 0.00 0.00 0.00 86 1017.2
20260903100106 76 0 0.0 0.0 0.00 0.00 0.00 87 1017.1
20260903094607 77 0 0.0 0.0 0.00 0.00 0.00 86 1017.1
20260903093110 77 0 0.0 0.0 0.00 0.00 0.00 86 1017.0
20260903091601 77 0 0.0 0.0 0.00 0.00 0.00 86 1017.0
20260903090101 77 0 0.0 0.0 0.00 0.00 0.00 86 1017.0
20260903084619 77 0 0.0 0.0 0.00 0.00 0.00 86 1016.9
20260903083105 77 0 0.0 0.0 0.00 0.00 0.00 86 1016.8
20260903081602 78 0 0.0 0.0 0.00 0.00 0.00 84 1016.7